Location: Braunsdorf
(50.7357°N, 11.9136°E)
Time: 02:40:23
(UTC+00:00)

Cosmos 1346 Rocket - Pass Details

Date: 17 February 2020
Orbit: 527 x 552 km, 81.2° (Epoch: 05 April)

Event Time Altitude Azimuth Distance (km) Brightness Sun altitude
Rises 05:20:21 0° 352° (N) 2,695 6.2 -10.3°
Reaches altitude 10° 05:22:36 10° 359° (N) 1,795 5.4 -10.0°
Maximum altitude 05:26:23 44° 72° (ENE) 749 4.1 -9.4°
Drops below altitude 10° 05:30:08 10° 146° (SE) 1,772 6.1 -8.8°
Sets 05:32:20 0° 153° (SSE) 2,655 6.9 -8.5°
